Wind_Speed
22 23 18 14 13 20 19 20 16 14 15 13 14 13 12 12 12 12 11 10 10 11
19 20 24 20 19 20 21 20 18 15 15 14 15 13 13 12 12 12 11 11 11 12
20 18 17 17 20 23 23 21 17 16 15 15 14 14 13 12 12 12 12 13 13 14
18 18 19 20 23 23 22 18 16 16 15 15 14 13 13 12 13 13 13 13 15 15
21 21 21 22 20 20 18 16 15 15 15 13 13 14 13 13 14 14 14 15 16 17
17 18 19 19 19 18 17 15 14 15 14 14 14 14 13 13 14 15 16 16 17 16
17 18 16 16 17 16 15 14 14 13 14 14 14 13 14 14 15 16 17 17 17 16
15 15 14 15 15 13 14 14 14 14 14 14 15 14 15 15 16 17 17 17 17 15
13 13 13 13 13 13 13 13 14 13 15 16 16 16 16 17 17 17 18 17 15 14
13 12 12 12 13 13 13 13 14 15 16 17 17 17 17 18 18 17 18 17 16 16
14 14 14 14 13 13 13 15 16 17 18 18 18 18 18 18 18 17 17 17 17 19
13 14 14 13 13 14 16 18 19 19 18 18 18 18 17 17 17 18 18 19 21 22
14 13 13 14 15 17 18 17 18 18 18 18 18 17 17 17 18 21 22 24 24 24
14 14 14 15 16 17 17 18 18 18 18 17 17 16 16 18 21 23 25 25 25 25
Wind_Direction
227 231 237 230 247 265 260 255 252 248 248 252 255 261 269 271 273 277 279 280 279 280
224 240 233 227 236 246 246 249 257 254 254 256 260 267 269 274 276 279 281 282 283 283
236 238 235 240 240 242 242 249 256 259 256 256 262 266 272 274 275 274 277 282 289 288
238 237 242 242 238 240 247 252 255 252 253 258 264 266 267 267 269 279 282 286 289 287
226 229 227 231 238 245 249 251 250 254 254 256 259 263 267 272 279 284 287 287 286 288
233 236 234 235 239 245 248 249 245 245 250 254 259 263 268 274 281 285 287 287 284 282
230 232 230 227 233 238 236 238 242 248 255 257 264 268 273 279 284 285 286 285 285 284
219 220 217 223 230 229 235 244 252 255 258 264 266 273 282 284 287 286 284 282 283 282
217 219 218 222 229 239 246 249 254 260 264 269 277 280 282 284 286 285 283 281 276 275
220 220 225 232 239 246 251 256 263 268 272 275 277 281 286 284 281 276 273 272 272 271
227 228 230 236 242 250 262 270 275 277 278 279 280 281 279 276 272 269 268 269 272 276
232 233 240 249 259 267 272 275 276 275 273 276 276 276 276 274 274 274 275 279 282 283
241 247 255 263 266 269 269 272 274 276 278 278 279 278 280 280 278 279 283 284 284 285
245 250 254 260 267 274 277 274 272 273 274 275 276 274 274 277 280 283 285 285 288 290
Height
1511 1511 1515 1514 1517 1525 1527 1532 1531 1529 1529 1529 1531 1531 1532 1530 1531 1532 1530 1528 1528 1528
1504 1506 1510 1514 1518 1521 1525 1525 1526 1525 1526 1527 1528 1528 1528 1528 1528 1528 1528 1526 1524 1525
1501 1503 1509 1511 1514 1519 1521 1521 1521 1523 1523 1524 1524 1526 1525 1525 1525 1524 1523 1522 1522 1522
1499 1502 1504 1507 1511 1515 1517 1517 1517 1518 1519 1520 1521 1521 1521 1521 1521 1520 1519 1519 1518 1518
1496 1498 1499 1504 1509 1512 1512 1511 1512 1513 1516 1515 1516 1517 1517 1518 1518 1516 1515 1514 1514 1514
1492 1495 1498 1500 1503 1506 1508 1508 1509 1511 1511 1512 1513 1513 1513 1513 1513 1512 1512 1509 1510 1509
1488 1492 1495 1497 1500 1503 1504 1504 1505 1506 1507 1508 1509 1510 1509 1509 1507 1506 1506 1505 1505 1504
1487 1490 1492 1495 1497 1498 1500 1501 1502 1502 1503 1503 1506 1505 1504 1504 1503 1502 1501 1501 1500 1500
1484 1487 1489 1492 1494 1495 1497 1498 1499 1498 1499 1500 1500 1500 1500 1499 1498 1497 1496 1496 1496 1496
1483 1484 1487 1489 1490 1492 1493 1494 1494 1494 1495 1495 1496 1496 1495 1494 1493 1492 1492 1492 1492 1492
1480 1482 1484 1486 1487 1488 1489 1489 1489 1490 1490 1491 1490 1490 1490 1489 1488 1487 1487 1487 1487 1487
1478 1479 1481 1482 1483 1484 1484 1485 1485 1485 1485 1486 1486 1485 1485 1484 1483 1483 1483 1482 1482 1481
1475 1476 1477 1478 1479 1480 1480 1480 1480 1480 1481 1481 1480 1480 1480 1480 1479 1479 1479 1478 1476 1475
1471 1472 1474 1474 1474 1474 1475 1475 1475 1476 1476 1476 1476 1476 1476 1476 1475 1474 1473 1471 1470 1469